CST,Max TemperatureF,Mean TemperatureF,Min TemperatureF,Max Dew PointF,MeanDew PointF,Min DewpointF,Max Humidity, Mean Humidity, Min Humidity, Max Sea Level PressureIn, Mean Sea Level PressureIn, Min Sea Level PressureIn, Max VisibilityMiles, Mean VisibilityMiles, Min VisibilityMiles, Max Wind SpeedMPH, Mean Wind SpeedMPH, Max Gust SpeedMPH,PrecipitationIn, CloudCover, Events, WindDirDegrees
2010-11-1,50,39,28,42,33,27,100,90,80,30.34,30.27,30.19,10,4,0,9,3,10,0.00,3,Fog,106
2010-11-2,69,49,29,43,35,28,100,66,32,30.31,30.21,30.13,10,8,1,25,8,30,0.00,0,,20
2010-11-3,55,47,39,36,30,25,76,54,32,30.43,30.36,30.26,10,10,10,35,15,45,0.00,0,,306
2010-11-4,51,38,25,30,28,24,92,67,41,30.47,30.40,30.31,10,10,10,14,5,20,0.00,0,,312
2010-11-5,59,41,23,33,26,21,96,61,26,30.30,30.08,29.88,10,10,10,17,7,22,0.00,0,,133
2010-11-6,73,52,30,40,34,27,92,60,27,29.97,29.90,29.85,10,10,10,10,3,12,0.00,0,,76
2010-11-7,67,51,34,40,37,33,100,69,37,29.94,29.81,29.67,10,10,10,13,6,15,0.00,0,,85
2010-11-8,64,48,31,46,38,30,100,74,48,29.67,29.63,29.59,10,10,10,9,3,10,0.00,0,,54
2010-11-9,52,46,39,43,40,37,96,84,71,29.66,29.62,29.59,10,7,2,22,10,28,T,5,,331
2010-11-10,40,36,32,37,31,28,100,85,70,30.01,29.84,29.66,10,5,1,22,14,28,0.07,8,Snow,289
2010-11-11,45,33,20,30,26,20,89,67,45,30.46,30.25,29.96,10,10,10,23,12,30,0.00,2,,274
2010-11-12,51,35,18,28,22,17,100,67,33,30.44,30.39,30.28,10,10,10,10,3,13,0.00,0,,165
2010-11-13,34,26,17,28,24,15,96,86,75,30.33,30.18,30.06,10,9,5,13,5,17,0.00,5,,310
2010-11-14,45,35,24,28,25,22,100,77,53,30.05,29.81,29.62,10,8,4,12,4,15,T,6,,275
2010-11-15,37,34,30,33,31,28,96,89,82,29.83,29.73,29.61,10,5,1,12,2,14,0.02,8,Snow,341
2010-11-16,40,33,26,34,31,27,100,85,70,30.05,29.77,29.63,10,10,7,15,6,18,T,7,,68
2010-11-17,35,29,22,31,25,17,92,83,74,30.43,30.26,30.04,10,9,2,15,9,20,0.01,8,Snow,13
2010-11-18,35,29,22,30,23,17,92,81,69,30.37,29.99,29.68,10,10,10,28,14,33,0.00,6,,132
2010-11-19,35,24,13,22,6,0,82,66,49,30.39,30.17,29.81,10,10,9,33,15,46,0.00,2,Snow,327
2010-11-20,15,12,9,12,8,1,96,79,61,30.41,30.21,29.98,10,5,0,21,13,26,0.28,8,Fog-Snow,81
2010-11-21,18,13,8,13,8,1,96,82,67,30.09,30.00,29.91,10,8,2,18,8,23,0.05,4,Snow,336
2010-11-22,9,4,-1,4,1,-4,87,82,76,30.27,30.06,29.95,10,6,1,14,8,18,0.16,6,Snow,349
2010-11-23,13,-1,-16,9,-6,-18,91,82,73,30.35,30.15,29.81,10,6,0,18,9,23,T,5,Fog,111
2010-11-24,23,9,-5,21,6,-13,92,79,65,29.95,29.78,29.65,10,5,1,29,15,37,0.07,7,Rain-Snow,292
2010-11-25,16,5,-7,11,-2,-15,79,69,58,29.92,29.84,29.72,10,7,2,25,14,36,T,5,Snow,280
2010-11-26,34,22,9,27,22,9,92,78,64,30.04,29.91,29.71,10,9,1,31,11,41,0.02,5,Rain-Snow,300
2010-11-27,28,16,4,22,13,3,92,84,75,30.02,29.91,29.74,10,10,10,12,3,12,0.00,0,,76
2010-11-28,28,21,14,25,20,15,100,92,84,29.74,29.61,29.51,10,8,4,23,10,30,T,5,,44
2010-11-29,23,20,17,19,16,12,92,86,80,30.18,29.94,29.71,8,3,0,33,21,46,0.06,8,Fog-Snow,338
2010-11-30,20,12,4,15,10,2,87,80,73,30.23,30.14,30.06,10,7,2,30,16,39,0.01,6,Snow,321